Find Starlink 33906

NORAD ID: 63785 Int'l Des: 2025-091 Owner: SPXS Country: US Constellation: starlink decayed
LEOCIRCULAR

Re-entered — 5. Mai 2026

3D-Globus wird geladen...

About Starlink 33906

Starlink 33906 (NORAD 63785) is a starlink constellation satellite (v2 mini) launched May 2, 2025 by SPXS of US. It re-entered the atmosphere on May 5, 2026. with a mass of 575.00 kg.

Höhenverlauf

Loading altitude history...

Zweizeiliger Elementsatz

1 63785U 25091L 26125.23113787 .16597876 90645-5 32119-2 0 9990
2 63785 42.9922 83.1305 0005177 221.3841 138.6657 16.30754173 57612
Epoch: 5. Mai 2026 • Age: 3374 hours

Aktueller Status

Position data unavailable
Startdatum 2. Mai 2025
Alter 1.3 years
Verglühungsdatum 5. Mai 2026
Typ internet

Technische Details

Klassifizierung Payload
Masse 575.00 kg
Trockenmasse 530.00 kg
Länge 0.30 m
Spannweite 29.00 m
Form ? Box + pan
Hersteller SPXS
Bus-Typ Starlink V2MO
Phasenstatus Reentered
Besitzer/Staat SPXS/US

Most Searched